Waukegan, IL

6:46 AM CST on February 24, 2018 (GMT -0600)
Waukegan Regional

Weather History for KUGN - February, 2012

Change the Weather History Date:

Wednesday, February 1, 2012

  Actual Average Record
Temperature  
Mean Temperature 36 °F 23 °F  
Max Temperature 43 °F 30 °F 46 °F (2006)
Min Temperature 28 °F 15 °F -1 °F (2013)
Degree Days  
Heating Degree Days 29 42  
Month to date heating degree days 29 42  
Since 1 July heating degree days 3893  
Cooling Degree Days 0 0  
Month to date cooling degree days 0 0  
Year to date cooling degree days 0 0  
Moisture  
Dew Point 32 °F    
Average Humidity 81    
Maximum Humidity 92    
Minimum Humidity 70    
Precipitation  
Precipitation 0.00 in 0.05 in 0.88 in (2011)
Month to date precipitation 0.00 0.05  
Year to date precipitation 1.07 1.44  
Sea Level Pressure  
Sea Level Pressure 30.10 in    
Wind  
Wind Speed 4 mph (NW)    
Max Wind Speed 12 mph    
Max Gust Speed 18 mph    
Visibility 6 miles    
Events      
T = Trace of Precipitation, MM = Missing Value Source: NWS Daily Summary

Daily Weather History Graph

Daily Weather History Graph

Search for Another Location

Airport or City:

Trip Planner

Search our weather history database for the weather conditions in past years. The results will help you decide how hot, cold, wet, or windy it might be!

Date:

Astronomy

Feb. 01, 2012 Rise Set
Actual Time 7:05 AM CST 5:04 PM CST
Civil Twilight 6:35 AM CST 5:34 PM CST
Nautical Twilight 6:02 AM CST 6:08 PM CST
Astronomical Twilight 5:29 AM CST 6:41 PM CST
Moon 11:30 AM CST (2/1) 1:52 AM CST (2/1)
Length of Visible Light 10h 58m
Length of Day
9h 59m
Waxing Gibbous, 65% of the Moon is Illuminated
Feb 1
Waxing Gibbous
Feb 7
Full
Feb 14
Last Quarter
Feb 21
New
Feb 29
First Quarter

Hourly Weather History & Observations

Time (CST) Temp. Windchill Dew Point Humidity Pressure Visibility Wind Dir Wind Speed Gust Speed Precip Events Conditions
12:52 AM 39.9 °F 35.1 °F 34.0 °F 79% 29.91 in 10.0 mi West 6.9 mph - N/A   Clear
1:52 AM 37.9 °F 34.4 °F 33.1 °F 83% 29.94 in 10.0 mi West 4.6 mph - N/A   Clear
2:52 AM 37.0 °F 32.4 °F 33.1 °F 86% 29.96 in 9.0 mi WNW 5.8 mph - N/A   Scattered Clouds
2:59 AM 37.4 °F 30.8 °F 33.8 °F 87% 29.95 in 9.0 mi WNW 9.2 mph - N/A   Mostly Cloudy
3:52 AM 37.9 °F 32.1 °F 33.1 °F 83% 29.99 in 9.0 mi NW 8.1 mph - N/A   Overcast
4:52 AM 37.0 °F 31.6 °F 33.1 °F 86% 30.02 in 7.0 mi NW 6.9 mph - N/A   Overcast
5:52 AM 37.0 °F 31.6 °F 33.1 °F 86% 30.04 in 6.0 mi WNW 6.9 mph - N/A   Overcast
6:52 AM 37.0 °F 32.4 °F 32.0 °F 82% 30.06 in 6.0 mi WNW 5.8 mph - N/A   Haze
7:52 AM 37.0 °F 34.5 °F 32.0 °F 82% 30.08 in 5.0 mi West 3.5 mph - N/A   Haze
8:52 AM 37.9 °F 34.4 °F 32.0 °F 79% 30.10 in 5.0 mi WNW 4.6 mph - N/A   Haze
9:52 AM 37.9 °F 35.5 °F 33.1 °F 83% 30.11 in 6.0 mi Variable 3.5 mph - N/A   Haze
10:52 AM 39.0 °F 34.0 °F 33.1 °F 79% 30.12 in 7.0 mi Variable 6.9 mph - N/A   Overcast
11:52 AM 42.1 °F 40.2 °F 34.0 °F 73% 30.11 in 7.0 mi WNW 3.5 mph - N/A   Mostly Cloudy
12:42 PM 42.8 °F - 33.8 °F 70% 30.09 in 7.0 mi Calm Calm - N/A   Scattered Clouds
12:52 PM 43.0 °F 40.3 °F 34.0 °F 71% 30.11 in - West 4.6 mph - N/A   Partly Cloudy
1:24 PM 42.8 °F 41.1 °F 35.6 °F 76% 30.09 in 7.0 mi SE 3.5 mph - N/A   Mostly Cloudy
1:52 PM 41.0 °F 38.0 °F 34.0 °F 76% 30.12 in 7.0 mi ENE 4.6 mph - N/A   Mostly Cloudy
1:56 PM 39.2 °F 34.2 °F 33.8 °F 81% 30.09 in 6.0 mi East 6.9 mph - N/A   Haze
2:06 PM 39.2 °F 35.0 °F 33.8 °F 81% 30.09 in 6.0 mi East 5.8 mph - N/A   Haze
2:52 PM 39.9 °F 36.7 °F 33.1 °F 77% 30.13 in 7.0 mi ENE 4.6 mph - N/A   Clear
3:52 PM 37.9 °F 34.4 °F 33.1 °F 83% 30.13 in 7.0 mi East 4.6 mph - N/A   Clear
4:52 PM 37.0 °F 34.5 °F 32.0 °F 82% 30.14 in 6.0 mi ENE 3.5 mph - N/A   Haze
5:52 PM 34.0 °F - 30.0 °F 85% 30.15 in 6.0 mi Calm Calm - N/A   Clear
6:52 PM 30.9 °F - 28.0 °F 89% 30.16 in 4.0 mi Calm Calm - N/A   Clear
7:52 PM 30.0 °F - 28.9 °F 96% 30.15 in 4.0 mi Calm Calm - N/A   Clear
8:47 PM 28.4 °F - 28.4 °F 100% 30.12 in 2.5 mi Calm Calm - N/A   Clear
8:52 PM 28.9 °F - 27.0 °F 92% 30.16 in 2.5 mi Calm Calm - N/A   Clear
9:03 PM 28.4 °F - 26.6 °F 93% 30.13 in 3.0 mi Calm Calm - N/A   Mostly Cloudy
9:21 PM 28.4 °F - 26.6 °F 93% 30.14 in 2.5 mi Calm Calm - N/A   Overcast
9:45 PM 30.2 °F - 28.4 °F 93% 30.15 in 3.0 mi Calm Calm - N/A   Overcast
9:52 PM 30.0 °F - 28.9 °F 96% 30.18 in 4.0 mi Calm Calm - N/A   Overcast
10:16 PM 32.0 °F - 30.2 °F 93% 30.15 in 5.0 mi Calm Calm - N/A   Overcast
10:52 PM 33.1 °F - 30.9 °F 92% 30.19 in 4.0 mi Calm Calm - N/A   Overcast
11:52 PM 35.1 °F - 33.1 °F 92% 30.19 in 4.0 mi Calm Calm - N/A   Overcast